ANA1548 RJTT-RJTH

Flight info

Callsign ANA1548
Flight time 0h 36m
Altitude 20000
Route VAMOS HATSU Y587 SANGO
Aircraft A20N/M-SDE2E3FGHIRWXY/LB1

Departure

Time 2026-04-23 19:22
Airport Tokyo Haneda International Airport (RJTT)

Arrival

Time 2026-04-23 19:59
Airport Hachijojima Airport (RJTH)
Time Latitude Longitude Altitude Speed Heading
2026-04-23 19:03 35.54945 139.76898 26 ft 0 kts 150°
2026-04-23 19:11 35.54945 139.76897 26 ft 1 kts 150°
2026-04-23 19:11 35.54957 139.76889 26 ft 2 kts 150°
2026-04-23 19:11 35.54970 139.76880 25 ft 2 kts 150°
2026-04-23 19:11 35.54984 139.76872 25 ft 2 kts 168°
2026-04-23 19:12 35.54993 139.76871 25 ft 2 kts 175°
2026-04-23 19:12 35.55013 139.76872 25 ft 2 kts 193°
2026-04-23 19:12 35.55027 139.76878 25 ft 2 kts 207°
2026-04-23 19:12 35.55040 139.76889 25 ft 2 kts 221°
2026-04-23 19:13 35.55050 139.76901 25 ft 2 kts 235°
2026-04-23 19:13 35.55054 139.76910 25 ft 1 kts 242°
2026-04-23 19:13 35.55055 139.76914 25 ft 0 kts 241°
2026-04-23 19:16 35.55055 139.76912 25 ft 0 kts 241°
2026-04-23 19:16 35.55051 139.76903 25 ft 2 kts 240°
2026-04-23 19:17 35.55024 139.76846 25 ft 5 kts 240°
2026-04-23 19:17 35.55003 139.76802 25 ft 6 kts 240°
2026-04-23 19:17 35.54978 139.76749 25 ft 7 kts 239°
2026-04-23 19:17 35.54950 139.76691 26 ft 8 kts 240°
2026-04-23 19:18 35.54921 139.76631 26 ft 8 kts 240°
2026-04-23 19:18 35.54890 139.76564 26 ft 10 kts 240°
2026-04-23 19:18 35.54857 139.76489 25 ft 9 kts 249°
2026-04-23 19:18 35.54868 139.76416 23 ft 11 kts 278°
2026-04-23 19:19 35.54836 139.76273 21 ft 8 kts 297°
2026-04-23 19:19 35.54871 139.76209 20 ft 9 kts 305°
2026-04-23 19:20 35.54930 139.76152 20 ft 4 kts 24°
2026-04-23 19:20 35.54953 139.76170 21 ft 3 kts 35°
2026-04-23 19:20 35.54966 139.76183 21 ft 0 kts 35°
2026-04-23 19:21 35.55195 139.76379 25 ft 80 kts 35°
2026-04-23 19:21 35.55854 139.76944 24 ft 148 kts 34°
2026-04-23 19:22 35.56792 139.77762 388 ft 173 kts 34°
2026-04-23 19:22 35.57750 139.78600 1287 ft 166 kts 35°
2026-04-23 19:22 35.59129 139.80524 2843 ft 158 kts 84°
2026-04-23 19:23 35.58842 139.81830 3413 ft 165 kts 121°
2026-04-23 19:23 35.58013 139.82892 3837 ft 183 kts 142°
2026-04-23 19:23 35.56912 139.83812 4314 ft 200 kts 146°
2026-04-23 19:24 35.54381 139.85870 5213 ft 241 kts 146°
2026-04-23 19:24 35.52962 139.87080 5769 ft 260 kts 146°
2026-04-23 19:24 35.49865 139.89778 7280 ft 281 kts 147°
2026-04-23 19:25 35.46612 139.92372 9110 ft 283 kts 165°
2026-04-23 19:25 35.42853 139.91826 10726 ft 283 kts 211°
2026-04-23 19:26 35.39264 139.89272 11613 ft 317 kts 213°
2026-04-23 19:26 35.37295 139.87874 11993 ft 336 kts 213°
2026-04-23 19:27 35.33028 139.84891 12661 ft 370 kts 213°
2026-04-23 19:27 35.26185 139.80173 14705 ft 382 kts 214°
2026-04-23 19:28 35.21570 139.76813 15984 ft 388 kts 219°
2026-04-23 19:28 35.17408 139.72691 17187 ft 390 kts 227°
2026-04-23 19:29 35.15432 139.70410 17766 ft 393 kts 227°
2026-04-23 19:29 35.11451 139.65771 18937 ft 398 kts 227°
2026-04-23 19:30 35.07438 139.61114 19812 ft 400 kts 227°
2026-04-23 19:30 35.05423 139.58781 19890 ft 401 kts 227°
2026-04-23 19:30 35.01378 139.54108 19891 ft 400 kts 226°
2026-04-23 19:31 34.99089 139.52142 19884 ft 408 kts 212°
2026-04-23 19:31 34.96372 139.50987 19894 ft 419 kts 197°
2026-04-23 19:31 34.93451 139.50758 19884 ft 428 kts 181°
2026-04-23 19:31 34.90474 139.51314 19901 ft 431 kts 175°
2026-04-23 19:32 34.87486 139.51984 19895 ft 434 kts 175°
2026-04-23 19:32 34.84556 139.52647 19891 ft 431 kts 175°
2026-04-23 19:32 34.81579 139.53316 19899 ft 432 kts 175°
2026-04-23 19:32 34.78649 139.53972 19896 ft 432 kts 175°
2026-04-23 19:33 34.75688 139.54628 19898 ft 431 kts 175°
2026-04-23 19:33 34.72739 139.55278 19899 ft 431 kts 175°
2026-04-23 19:33 34.66820 139.56581 19894 ft 431 kts 175°
2026-04-23 19:34 34.63880 139.57228 19893 ft 432 kts 175°
2026-04-23 19:34 34.60893 139.57884 19888 ft 432 kts 175°
2026-04-23 19:34 34.55006 139.59174 19892 ft 432 kts 175°
2026-04-23 19:35 34.52027 139.59830 19875 ft 428 kts 175°
2026-04-23 19:35 34.49141 139.60466 19565 ft 417 kts 175°
2026-04-23 19:35 34.46327 139.61084 19310 ft 404 kts 176°
2026-04-23 19:35 34.43608 139.61679 19072 ft 391 kts 175°
2026-04-23 19:36 34.40959 139.62256 18831 ft 380 kts 175°
2026-04-23 19:36 34.38395 139.62816 18582 ft 370 kts 176°
2026-04-23 19:36 34.35874 139.63361 18341 ft 367 kts 176°
2026-04-23 19:36 34.33385 139.63898 18093 ft 367 kts 175°
2026-04-23 19:37 34.30866 139.64441 17856 ft 366 kts 175°
2026-04-23 19:37 34.28343 139.64987 17617 ft 366 kts 175°
2026-04-23 19:37 34.25843 139.65526 17390 ft 364 kts 175°
2026-04-23 19:37 34.23371 139.66063 17153 ft 362 kts 175°
2026-04-23 19:38 34.20905 139.66599 16907 ft 361 kts 175°
2026-04-23 19:38 34.18414 139.67140 16659 ft 361 kts 175°
2026-04-23 19:38 34.15965 139.67671 16431 ft 359 kts 175°
2026-04-23 19:38 34.13497 139.68207 16195 ft 359 kts 175°
2026-04-23 19:39 34.11053 139.68736 15955 ft 357 kts 175°
2026-04-23 19:39 34.08615 139.69263 15720 ft 356 kts 175°
2026-04-23 19:39 34.06160 139.69794 15482 ft 355 kts 175°
2026-04-23 19:39 34.03750 139.70314 15244 ft 354 kts 175°
2026-04-23 19:40 34.01333 139.70834 15006 ft 353 kts 175°
2026-04-23 19:40 33.98924 139.71358 14767 ft 352 kts 175°
2026-04-23 19:40 33.96482 139.71884 14529 ft 350 kts 175°
2026-04-23 19:40 33.94087 139.72403 14288 ft 349 kts 175°
2026-04-23 19:41 33.91721 139.72913 14053 ft 348 kts 175°
2026-04-23 19:41 33.89321 139.73430 13810 ft 346 kts 175°
2026-04-23 19:41 33.86973 139.73935 13573 ft 346 kts 175°
2026-04-23 19:41 33.84610 139.74445 13334 ft 345 kts 174°
2026-04-23 19:42 33.82227 139.74957 13090 ft 343 kts 174°
2026-04-23 19:42 33.79885 139.75462 12850 ft 341 kts 174°
2026-04-23 19:42 33.77576 139.75958 12612 ft 338 kts 174°
2026-04-23 19:42 33.75246 139.76459 12368 ft 338 kts 174°
2026-04-23 19:43 33.72927 139.76955 12125 ft 337 kts 174°
2026-04-23 19:43 33.70635 139.77446 11885 ft 335 kts 174°
2026-04-23 19:43 33.68349 139.77934 11641 ft 333 kts 174°
2026-04-23 19:43 33.66047 139.78427 11395 ft 332 kts 173°
2026-04-23 19:44 33.63780 139.78912 11154 ft 331 kts 173°
2026-04-23 19:44 33.61530 139.79395 10913 ft 329 kts 173°
2026-04-23 19:44 33.59246 139.79884 10671 ft 328 kts 173°
2026-04-23 19:44 33.57021 139.80362 10427 ft 326 kts 172°
2026-04-23 19:45 33.54816 139.80829 10249 ft 316 kts 174°
2026-04-23 19:45 33.52663 139.81100 10167 ft 300 kts 180°
2026-04-23 19:45 33.50624 139.81102 10076 ft 286 kts 185°
2026-04-23 19:45 33.48689 139.80998 9903 ft 278 kts 186°
2026-04-23 19:46 33.46746 139.80878 9532 ft 274 kts 186°
2026-04-23 19:46 33.44883 139.80768 9201 ft 263 kts 186°
2026-04-23 19:46 33.43098 139.80664 8889 ft 256 kts 186°
2026-04-23 19:46 33.41338 139.80562 8583 ft 249 kts 186°
2026-04-23 19:47 33.39615 139.80461 8280 ft 242 kts 189°
2026-04-23 19:47 33.38007 139.80078 7981 ft 233 kts 202°
2026-04-23 19:47 33.36562 139.79271 7681 ft 224 kts 213°
2026-04-23 19:47 33.35260 139.78305 7373 ft 216 kts 215°
2026-04-23 19:48 33.34038 139.77370 7159 ft 204 kts 216°
2026-04-23 19:48 33.32879 139.76483 7022 ft 187 kts 216°
2026-04-23 19:48 33.31814 139.75671 6761 ft 177 kts 216°
2026-04-23 19:48 33.30822 139.74916 6534 ft 165 kts 216°
2026-04-23 19:49 33.29858 139.74184 6332 ft 161 kts 216°
2026-04-23 19:49 33.28916 139.73469 6156 ft 160 kts 216°
2026-04-23 19:49 33.27978 139.72755 5985 ft 160 kts 215°
2026-04-23 19:49 33.27038 139.72043 5813 ft 160 kts 215°
2026-04-23 19:50 33.26096 139.71332 5580 ft 159 kts 215°
2026-04-23 19:50 33.25170 139.70634 5382 ft 159 kts 215°
2026-04-23 19:50 33.24235 139.69928 5192 ft 159 kts 214°
2026-04-23 19:50 33.23289 139.69212 4953 ft 160 kts 214°
2026-04-23 19:51 33.22352 139.68507 4741 ft 156 kts 214°
2026-04-23 19:51 33.21463 139.67839 4714 ft 147 kts 214°
2026-04-23 19:51 33.20610 139.67198 4697 ft 145 kts 214°
2026-04-23 19:51 33.19749 139.66550 4673 ft 145 kts 214°
2026-04-23 19:52 33.18895 139.65907 4650 ft 145 kts 214°
2026-04-23 19:52 33.18038 139.65262 4620 ft 145 kts 214°
2026-04-23 19:52 33.17181 139.64616 4589 ft 145 kts 214°
2026-04-23 19:52 33.16328 139.63974 4533 ft 145 kts 214°
2026-04-23 19:53 33.15475 139.63332 4446 ft 144 kts 214°
2026-04-23 19:53 33.14632 139.62697 4269 ft 144 kts 214°
2026-04-23 19:53 33.13781 139.62058 4062 ft 143 kts 214°
2026-04-23 19:53 33.12929 139.61432 3858 ft 143 kts 209°
2026-04-23 19:54 33.11995 139.61026 3661 ft 143 kts 194°
2026-04-23 19:54 33.11004 139.60934 3468 ft 143 kts 179°
2026-04-23 19:54 33.10021 139.61166 3272 ft 142 kts 164°
2026-04-23 19:54 33.09141 139.61691 3074 ft 142 kts 148°
2026-04-23 19:55 33.08416 139.62473 2886 ft 141 kts 133°
2026-04-23 19:55 33.07888 139.63454 2694 ft 142 kts 118°
2026-04-23 19:55 33.07592 139.64589 2506 ft 143 kts 102°
2026-04-23 19:55 33.07560 139.65758 2321 ft 144 kts 86°
2026-04-23 19:56 33.07794 139.66927 2133 ft 146 kts 73°
2026-04-23 19:56 33.08156 139.68068 1948 ft 146 kts 71°
2026-04-23 19:56 33.08526 139.69183 1751 ft 145 kts 71°
2026-04-23 19:56 33.08894 139.70305 1560 ft 144 kts 71°
2026-04-23 19:57 33.09247 139.71403 1372 ft 142 kts 71°
2026-04-23 19:57 33.09601 139.72511 1181 ft 142 kts 71°
2026-04-23 19:57 33.09947 139.73602 993 ft 142 kts 71°
2026-04-23 19:57 33.10294 139.74709 804 ft 141 kts 72°
2026-04-23 19:58 33.10632 139.75804 623 ft 140 kts 71°
2026-04-23 19:58 33.10979 139.76877 402 ft 140 kts 71°
2026-04-23 19:58 33.11319 139.77977 280 ft 137 kts 70°
2026-04-23 19:58 33.11557 139.78735 300 ft 69 kts 71°
2026-04-23 19:59 33.11674 139.79054 294 ft 18 kts 70°
2026-04-23 19:59 33.11644 139.79040 295 ft 10 kts 261°
2026-04-23 19:59 33.11603 139.78957 296 ft 12 kts 207°
2026-04-23 19:59 33.11520 139.78931 295 ft 13 kts 217°
2026-04-23 20:00 33.11504 139.78873 296 ft 0 kts 292°
2026-04-23 20:02 33.11504 139.78871 296 ft 0 kts 292°
2026-04-23 20:03 33.11520 139.78848 296 ft 8 kts 323°
2026-04-23 20:03 33.11567 139.78783 300 ft 13 kts 281°
2026-04-23 20:03 33.11537 139.78661 301 ft 16 kts 249°
2026-04-23 20:03 33.11528 139.78633 301 ft 17 kts 250°
2026-04-23 20:04 33.11484 139.78494 299 ft 17 kts 249°
2026-04-23 20:04 33.11450 139.78395 297 ft 8 kts 254°
2026-04-23 20:04 33.11476 139.78343 298 ft 7 kts 335°
2026-04-23 20:04 33.11513 139.78331 300 ft 4 kts 358°
2026-04-23 20:05 33.11535 139.78339 302 ft 5 kts 23°
2026-04-23 20:05 33.11559 139.78340 303 ft 2 kts 348°
2026-04-23 20:05 33.11579 139.78332 304 ft 1 kts 339°
2026-04-23 20:05 33.11592 139.78326 305 ft 4 kts 338°
2026-04-23 20:06 33.11600 139.78322 305 ft 3 kts 339°
2026-04-23 20:11 33.11599 139.78323 305 ft 0 kts 339°
2026-04-23 20:12 33.11598 139.78323 305 ft 0 kts 339°
2026-04-23 20:12 33.11597 139.78323 305 ft 0 kts 339°
2026-04-23 20:16 33.11596 139.78323 305 ft 0 kts 339°
2026-04-23 20:17 33.11595 139.78325 305 ft 0 kts 339°
2026-04-23 20:18 33.11580 139.78331 304 ft 3 kts 339°
2026-04-23 20:18 33.11548 139.78345 302 ft 6 kts 339°
2026-04-23 20:19 33.11514 139.78361 300 ft 7 kts 339°
2026-04-23 20:19 33.11469 139.78381 297 ft 7 kts 338°
2026-04-23 20:19 33.11466 139.78383 297 ft 7 kts 338°